sat.trackr.live / text

‹ back to catalog

STARLINK-36067

NORAD 66965 · 2025-288G

PAYLOAD ACTIVE UNKNOWN

§ Identity

Operator
Country
US
Launch date
2025-12-08
Launch site
AFETR
Launch vehicle
Mass (kg)
RCS (m²)

Purposes: comms

External: N2YO · Heavens-Above · Gunter

§ Orbital elements

Epoch: 2026-09-20T13:33:04.709376Z

Period
94.27 min
Inclination
43.0021°
Eccentricity
0.0001171
Mean motion
15.27594530 rev/d
Perigee alt
482.2 km
Apogee alt
483.8 km
Semi-major
6,861.1 km
B*
5.3907e-4
RAAN
2.6802°
Arg perigee
272.6153°
Mean anomaly
87.4564°
Rev number
4,509

§ Raw data

STARLINK-360671 66965U 25288G   26263.56463784  .00014608  00000+0  53907-3 0  99942 66965  43.0021   2.6802 0001171 272.6153  87.4564 15.27594530 45091

JSON: /api/v1/satellites/66965 · /tle

For live sub-satellite position, see the globe view (requires WebGL).

§ Visibility from observer

Set your observer location to see the next 7 days of passes ≥ 10°. The values pass through the URL so the page stays shareable.

No JS? Fill the form by hand. The geolocation button needs JavaScript.